GSAT0219 (GALILEO 23) (43566 NORAD) Tracking and Keplerian Element Data

This shows tracking and keplerian element data for the satellite.

Feedback or suggestion? Click here.




ElementValue
Catalog43566
NameGSAT0219 (GALILEO 23)
Epoch Orbit464
Epoch Day112.27132997
Epoch Year2019
RAAN52.6411
Inclination56.5268
Eccentricity0.0004925
Argument of Perigee296.1773
Mean Anonmoly63.7415
Mean Motion1.70475597
Decay Rate-7.4E-07
L11 43566U 18060C 19112.27132997 -.00000074 00000-0 00000+0 0 9994
L22 43566 56.5268 52.6411 0004925 296.1773 63.7415 1.70475597 4647

Live tracking and technical data element details for GSAT0219 (GALILEO 23) (NORAD 43566). GSAT0219 (GALILEO 23) can be tracked NOW for your location showing map with azimuth and elevation plus other details from your city location.

Track the satellite on the map from your city or location and see movement details for azimuth, elevation, latitude, longitude, range, height, and movement on the map or in text.







IsCatalogInMostPopularTable: catalog: 43566, numindb: 114
Update: records affected: 1



GetName: 43566 GSAT0219 (GALILEO 23)

Hit Count: updated at: Tue, 23 Apr 2019 20:56:28 GMT